Le nostre stazioni meteo in Italia

Pubblicità
Il mio iltempo24.it
Palermo/Punta Raisi, Italia (16405): Temperatura & dewpoint: 05.12.2018 02:00:00 - 11.12.2018 02:00:00 (CET)Palermo/Punta Raisi, Italia (16405): velocità del vento: 05.12.2018 02:00:00 - 11.12.2018 02:00:00 (CET)Palermo/Punta Raisi, Italia (16405): direzione del vento: 05.12.2018 02:00:00 - 11.12.2018 02:00:00 (CET)Palermo/Punta Raisi, Italia (16405): reduced air pressure: 05.12.2018 02:00:00 - 11.12.2018 02:00:00 (CET)Palermo/Punta Raisi, Italia (16405): visibility: 05.12.2018 02:00:00 - 11.12.2018 02:00:00 (CET)Palermo/Punta Raisi, Italia (16405): precipitazioni: 05.12.2018 02:00:00 - 11.12.2018 02:00:00 (CET)
Data & Tempo tt [°C] td [°C] ff [km/h] ff [kn] dd ppp [hPa] vv [km] rr [mm]
11.12.2018 02:00:00 15,0 9,0 34 18 NO - 10 -
11.12.2018 01:00:00 15,4 10,1 29 16 ONO 1017,4 10 -
11.12.2018 00:00:00 16,0 9,0 34 18 NO - 10 -
10.12.2018 23:00:00 15,0 8,0 34 18 NO - 10 -
10.12.2018 22:00:00 15,4 9,1 34 18 NO 1017,6 10 0,0
10.12.2018 21:00:00 16,0 9,0 35 19 NO - 10 -
10.12.2018 20:00:00 16,0 10,0 34 18 NO - 10 -
10.12.2018 19:00:00 15,4 9,3 34 18 NO 1017,2 10 -
10.12.2018 18:00:00 16,0 10,0 37 20 NO - 10 -
10.12.2018 17:00:00 16,0 9,0 39 21 NO - 10 -
10.12.2018 16:00:00 15,7 9,6 35 19 NO 1016,9 10 0,0
10.12.2018 15:00:00 16,0 10,0 39 21 ONO - 10 -
10.12.2018 14:00:00 16,0 10,0 37 20 O - 9 -
10.12.2018 13:00:00 15,8 9,7 39 21 ONO 1017,2 10 -
10.12.2018 12:00:00 16,0 10,0 34 18 ONO - 10 -
10.12.2018 11:00:00 16,0 9,0 31 17 ONO - 10 -
10.12.2018 10:00:00 15,7 9,8 34 18 ONO 1018,7 10 0,0
10.12.2018 09:00:00 16,0 10,0 29 16 ONO - 10 -
10.12.2018 08:00:00 16,0 10,0 28 15 ONO - 9 -
10.12.2018 07:00:00 15,7 9,7 34 18 NO 1017,0 10 -
10.12.2018 06:00:00 16,0 9,0 35 19 NO - 10 -
10.12.2018 05:00:00 16,0 10,0 35 19 NNO - 10 -
10.12.2018 04:00:00 16,0 12,0 46 25 O - 10 -
10.12.2018 03:00:00 16,0 13,0 42 23 O - 10 -
10.12.2018 02:00:00 17,0 12,0 46 25 O - 10 -
10.12.2018 01:00:00 16,6 12,1 37 20 O 1017,3 10 -
10.12.2018 00:00:00 17,0 12,0 37 20 O - 10 -
09.12.2018 23:00:00 17,0 13,0 39 21 O - 10 -
09.12.2018 22:00:00 16,3 12,9 31 17 OSO 1019,2 10 0,0
09.12.2018 21:00:00 17,0 13,0 39 21 OSO - 10 -
09.12.2018 20:00:00 17,0 13,0 39 21 OSO - 10 -
09.12.2018 19:00:00 16,4 11,6 34 18 SO 1018,6 10 -
09.12.2018 18:00:00 17,0 13,0 39 21 OSO - 10 -
09.12.2018 17:00:00 16,0 12,0 39 21 OSO - 10 -
09.12.2018 16:00:00 16,7 11,9 44 24 OSO 1018,2 10 0,0
09.12.2018 15:00:00 17,0 13,0 41 22 OSO - 10 -
09.12.2018 14:00:00 16,0 13,0 44 24 O - 10 -
09.12.2018 13:00:00 16,0 10,5 24 13 SO 1019,4 10 -
09.12.2018 12:00:00 16,0 10,0 21 11 SO - 10 -
09.12.2018 11:00:00 15,0 10,0 24 13 SO - 10 -
09.12.2018 10:00:00 15,3 8,9 21 11 OSO 1021,2 10 0,0
09.12.2018 09:00:00 15,0 9,0 18 10 ONO - 10 -
09.12.2018 08:00:00 15,0 10,0 11 6 NO - 10 -
09.12.2018 07:00:00 15,2 9,2 16 9 ONO 1020,9 10 -
09.12.2018 06:00:00 15,0 9,0 18 10 NO - 10 -
09.12.2018 05:00:00 15,0 9,0 24 13 NO - 10 -
09.12.2018 04:00:00 15,4 9,6 26 14 NO 1020,3 10 0,0
09.12.2018 03:00:00 15,0 9,0 24 13 NO - 10 -
09.12.2018 02:00:00 15,0 10,0 22 12 NO - 10 -
09.12.2018 01:00:00 15,3 9,0 24 13 NO 1020,3 10 -
09.12.2018 00:00:00 15,0 9,0 22 12 NO - 10 -
08.12.2018 23:00:00 16,0 9,0 28 15 NO - 10 -
08.12.2018 22:00:00 15,9 8,6 26 14 NO 1020,2 10 0,0
08.12.2018 21:00:00 16,0 8,0 31 17 NO - 10 -
08.12.2018 20:00:00 16,0 9,0 26 14 ONO - 10 -
08.12.2018 19:00:00 15,9 8,9 26 14 ONO 1018,7 10 -
08.12.2018 18:00:00 16,0 8,0 31 17 ONO - 10 -
08.12.2018 17:00:00 16,0 11,0 29 16 ONO - 10 -
08.12.2018 16:00:00 16,5 11,9 37 20 ONO 1018,0 10 0,0
08.12.2018 15:00:00 16,0 10,0 42 23 O - 10 -
08.12.2018 14:00:00 17,0 11,0 41 22 O - 10 -
08.12.2018 13:00:00 16,9 12,3 35 19 O 1017,9 10 -
08.12.2018 12:00:00 17,0 13,0 39 21 O - 10 -
08.12.2018 11:00:00 17,0 13,0 35 19 O - 10 -
08.12.2018 10:00:00 16,5 12,9 39 21 OSO 1019,0 10 0,0
08.12.2018 09:00:00 15,0 12,0 26 14 SO - 10 -
08.12.2018 08:00:00 15,0 11,0 26 14 SSO - 10 -
08.12.2018 07:00:00 13,7 10,6 22 12 SSO 1018,8 10 -
08.12.2018 06:00:00 14,0 11,0 22 12 SSO - 10 -
08.12.2018 05:00:00 14,0 11,0 24 13 SSO - 10 -
08.12.2018 04:00:00 13,8 10,8 22 12 SSO 1019,6 10 0,0
08.12.2018 03:00:00 14,0 11,0 21 11 SSO - 10 -
08.12.2018 02:00:00 14,0 11,0 15 8 S - 10 -
08.12.2018 01:00:00 12,9 10,7 15 8 S 1021,2 10 -
08.12.2018 00:00:00 13,0 11,0 13 7 S - 10 -
07.12.2018 23:00:00 12,0 9,0 11 6 S - 10 -
07.12.2018 22:00:00 11,9 9,1 11 6 S 1021,8 10 0,0
07.12.2018 21:00:00 12,0 9,0 9 5 S - 10 -
07.12.2018 20:00:00 13,0 10,0 8 4 S - 10 -
07.12.2018 19:00:00 12,6 10,0 9 5 S 1022,4 10 -
07.12.2018 18:00:00 15,0 11,0 5 3 S - 10 -
07.12.2018 17:00:00 15,0 12,0 9 5 E - 10 -
07.12.2018 16:00:00 16,2 12,7 15 8 NE 1021,7 10 0,0
07.12.2018 15:00:00 17,0 13,0 15 8 NE - 10 -
07.12.2018 14:00:00 17,0 13,0 5 3 NNO - 10 -
07.12.2018 13:00:00 15,9 12,0 9 5 OSO 1021,1 10 -
07.12.2018 12:00:00 16,0 12,0 5 3 O - 10 -
07.12.2018 11:00:00 15,0 12,0 5 3 O - 10 -
07.12.2018 10:00:00 14,8 11,3 8 4 SSO 1022,0 10 0,0
07.12.2018 09:00:00 14,0 11,0 5 3 SSE - 10 -
07.12.2018 08:00:00 13,0 10,0 5 3 E - 10 -
07.12.2018 07:00:00 12,2 10,6 5 3 SE 1019,7 10 -
07.12.2018 06:00:00 11,0 10,0 4 2 SE - 10 -
07.12.2018 05:00:00 12,0 11,0 8 4 SSE - 10 -
07.12.2018 04:00:00 11,9 10,5 2 1 - 1018,2 10 0,0
07.12.2018 03:00:00 12,0 10,0 8 4 SSE - 10 -
07.12.2018 02:00:00 13,0 12,0 5 3 SO - 10 -
07.12.2018 01:00:00 13,3 11,8 8 4 S 1018,0 10 -
07.12.2018 00:00:00 14,0 12,0 11 6 E - 10 -
06.12.2018 23:00:00 14,0 12,0 5 3 ENE - 10 -
06.12.2018 22:00:00 13,8 11,7 11 6 OSO 1018,1 8 0,0
06.12.2018 21:00:00 15,0 12,0 18 10 S - 10 -
06.12.2018 20:00:00 15,0 12,0 18 10 S - 10 -
06.12.2018 19:00:00 14,5 11,3 15 8 S 1018,5 10 -
06.12.2018 18:00:00 16,0 10,0 16 9 SSO - 10 -
06.12.2018 17:00:00 16,0 10,0 15 8 SSO - 10 -
06.12.2018 16:00:00 16,5 11,5 21 11 OSO 1020,0 10 0,0
06.12.2018 15:00:00 16,0 11,0 16 9 O - 10 -
06.12.2018 14:00:00 16,0 8,0 8 4 OSO - 10 -
06.12.2018 13:00:00 16,2 9,0 9 5 O 1020,9 10 -
06.12.2018 12:00:00 16,0 7,0 9 5 O - 10 -
06.12.2018 11:00:00 16,0 8,0 5 3 SSO - 10 -
06.12.2018 10:00:00 14,4 8,6 8 4 SO 1023,2 10 0,0
06.12.2018 09:00:00 12,0 8,0 8 4 S - 10 -
06.12.2018 08:00:00 11,0 7,0 5 3 SO - 10 -
06.12.2018 07:00:00 9,0 5,5 8 4 S 1023,2 10 -
06.12.2018 06:00:00 10,0 6,0 9 5 SSE - 10 -
06.12.2018 05:00:00 10,0 7,0 9 5 SSE - 10 -
06.12.2018 04:00:00 9,6 6,7 5 3 S 1024,3 10 0,0
06.12.2018 03:00:00 10,0 7,0 4 2 S - 10 -
06.12.2018 02:00:00 10,0 8,0 8 4 SSE - 10 -
06.12.2018 01:00:00 10,7 8,1 8 4 SSE 1024,7 10 -
06.12.2018 00:00:00 11,0 8,0 5 3 SSO - 10 -
05.12.2018 23:00:00 12,0 9,0 4 2 - - 10 -
05.12.2018 22:00:00 13,7 9,9 4 2 - 1025,1 10 0,0
05.12.2018 21:00:00 13,0 9,0 8 4 SE - 10 -
05.12.2018 20:00:00 14,0 10,0 13 7 ENE - 10 -
05.12.2018 19:00:00 14,3 10,5 13 7 ENE 1024,5 10 -
05.12.2018 18:00:00 15,0 11,0 11 6 ENE - 10 -
05.12.2018 17:00:00 16,0 12,0 13 7 NE - 10 -
05.12.2018 16:00:00 17,1 12,2 16 9 NE 1023,8 10 0,0
05.12.2018 15:00:00 17,0 12,0 21 11 NE - 10 -
05.12.2018 14:00:00 18,0 13,0 13 7 ENE - 10 -
05.12.2018 13:00:00 17,7 12,2 15 8 NE 1023,3 10 -
05.12.2018 12:00:00 18,0 12,0 18 10 NE - 10 -
05.12.2018 11:00:00 18,0 13,0 18 10 NE - 10 -
05.12.2018 10:00:00 17,4 12,5 18 10 NE 1022,9 10 0,0
05.12.2018 09:00:00 17,0 12,0 15 8 NE - 10 -
05.12.2018 08:00:00 17,0 15,0 15 8 NNO - 10 -
05.12.2018 07:00:00 16,9 14,7 13 7 NNO 1021,0 10 -
05.12.2018 06:00:00 17,0 14,0 15 8 NNO - 10 -
05.12.2018 05:00:00 17,0 14,0 13 7 NNO - 10 -
05.12.2018 04:00:00 16,6 14,0 15 8 NNO 1019,4 - 0,0
05.12.2018 03:00:00 - - - - - - - -
05.12.2018 02:00:00 17,0 14,0 16 9 NNO - 10 -

tt = Temperatura
td = dewpoint
ff = velocità del vento
dd = direzione del vento
ppp = reduced air pressure
vv = visibility
rr = precipitazioni

Stazioni seguenti

WeatherPro
AMSI
MeteoEarth